Regional Weather Roundup
Issued by NWS

Home | Current Version | Previous Version | Text Only | Print | Product List | Glossary Off
Versions: 1 2 3 4 5 6 7 8 9 10 11 12 13 14 15 16 17 18 19 20 21 22 23 24 25 26 27 28 29 30 31 32 33 34 35 36 37 38 39 40 41 42 43 44 45 46 47 48 49 50

000
ASUS43 KLOT 281110
RWRIL

ILLINOIS REGIONAL WEATHER ROUNDUP
NATIONAL WEATHER SERVICE CHICAGO/ROMEOVILLE IL
500 AM CST WED JAN 28 2015

NOTE: "FAIR" INDICATES FEW OR NO CLOUDS BELOW 12,000 FEET WITH NO
SIGNIFICANT WEATHER AND/OR OBSTRUCTIONS TO VISIBILITY.

* THESE STATIONS ARE NOT UNDER NWS QUALITY CONTROL. THEY ALSO MAY NOT
  REPORT WEATHER SUCH AS PRECIPITATION OR FOG.

ILZ001-002-007-009-015-016-024-281200-
NORTHWEST ILLINOIS

CITY           SKY/WX    TMP DP  RH WIND       PRES   REMARKS
MOLINE         CLOUDY    29  24  82 SE7       30.20S WCI  22
STERLING*      CLOUDY    27  21  80 SE3       30.23R
SAVANNA*       CLOUDY    28  24  85 S8        30.23R WCI  20
$$

ILZ003-004-008-010-011-017-018-281200-
NORTH CENTRAL ILLINOIS

CITY           SKY/WX    TMP DP  RH WIND       PRES   REMARKS
ROCKFORD       MOCLDY    22  17  81 SE7       30.25S WCI  13
FREEPORT*      CLOUDY    24  21  87 SE5       30.24R WCI  18
ROCHELLE*      PTCLDY    18  15  90 SE8       30.24S WCI   7
DE KALB*       PTCLDY    19  16  86 SE7       30.24S WCI  10
PERU*          MOCLDY    23  19  86 SE7       30.26R WCI  15
$$

ILZ005-006-012>014-019>023-281200-
NORTHEAST ILLINOIS

CITY           SKY/WX    TMP DP  RH WIND       PRES   REMARKS
CHICAGO-OHARE  PTCLDY    22  18  85 SE3       30.25F
CHICAGO-MIDWAY PTCLDY    24  18  77 SE7       30.27F WCI  16
AURORA         PTCLDY    20  15  81 SE5       30.26R WCI  13
LANSING*       PTCLDY    17  15  91 CALM      30.28F
JOLIET*        PTCLDY    22  18  84 CALM      30.27S
WAUKEGAN       PTCLDY    18  15  88 CALM      30.25F
DUPAGE AIRPORT PTCLDY    20  16  84 S3        30.25S
KANKAKEE*      MOCLDY    20  18  91 E5        30.28S WCI  14
WHEELING       MOCLDY    21  17  84 E3        30.27F
MORRIS*        PTCLDY    21  19  89 SE5       30.26R WCI  15
ROMEOVILLE*    PTCLDY    21  18  86 SE6       30.27R WCI  13
NORTHERLY ISL    N/A     24  16  71 S6          N/A  WCI  17
$$

LMZ740>746-281200-
SOUTHERN LAKE MICHIGAN

STATION/POSITION SKY/WX   TEMP    WIND        PRES    VSBY  WAVE
                          AIR SEA DIR/SP/G                  HT/PER
                          (F)     (DEG/KT/KT) (MB)    (MI)  (FT/S)
WAUKEGAN HARBOR            25        CALM       N/A
HARRISON CRIB              26     170/ 14/ 16   N/A
BURNHAM HARBOR             24     170/  3/  7   N/A
CALUMET HARBOR                    170/  4/  5   N/A
MICHIGAN CITY              21     120/  7/  8   N/A
$$

ILZ025>027-034>036-040-047-049-050-058-095>099-281200-
WEST-CENTRAL ILLINOIS

CITY           SKY/WX    TMP DP  RH WIND       PRES   REMARKS
QUINCY         CLEAR     28  24  85 SE10      30.17F WCI  19
GALESBURG*     CLEAR     27  24  89 SE7       30.20F WCI  19
MACOMB*        CLEAR     27  25  93 SE10      30.23S WCI  17
JACKSONVILLE*  CLEAR     29  25  84 SE8       30.23S WCI  21
PITTSFIELD*    CLEAR     29  26  90 SE12      30.21F WCI  19
$$

ILZ028>032-037-038-041>044-048-051>054-059>061-281200-
CENTRAL ILLINOIS

CITY           SKY/WX    TMP DP  RH WIND       PRES   REMARKS
PONTIAC        CLEAR     23  20  89 SE6       30.26S WCI  16
BLOOMINGTON    CLEAR     23  18  81 SE9       30.25S WCI  13
DECATUR        CLEAR     23  19  85 SE8       30.26R WCI  14
PEORIA         CLEAR     27  22  81 SE5       30.25R WCI  22
LACON*         CLOUDY    26  23  86 SE7       30.24S WCI  19
LINCOLN*       CLEAR     24  22  91 SE5       30.27R WCI  19
SPRINGFIELD    CLEAR     25  21  85 SE8       30.25S WCI  16
TAYLORVILLE    CLEAR     27  21  80 SE8       30.25F WCI  18
$$

ILZ033-039-045-046-055>057-062-063-281200-
EAST-CENTRAL ILLINOIS

CITY           SKY/WX    TMP DP  RH WIND       PRES   REMARKS
CHAMPAIGN      CLEAR     21  17  84 SE7       30.26S WCI  12
DANVILLE*      PTCLDY    19  16  90 E3        30.26R
RANTOUL*       CLEAR     23  18  83 SE7       30.26F WCI  14
MATTOON        CLEAR     21  15  78 SE7       30.26R WCI  12
PARIS*         CLEAR     21  19  91 CALM      30.29S
$$

ILZ079-100>102-281200-
SOUTHWEST ILLINOIS

CITY           SKY/WX    TMP DP  RH WIND       PRES   REMARKS
ALTON          CLEAR     27  26  95 E8        30.25S FOG     WCI  19
BELLEVILLE     CLEAR     26  26  99 E8        30.25F WCI  18
CAHOKIA*       CLEAR     29  26  89 SE9       30.25S WCI  20
SPARTA*        CLEAR     27  26  96 SE5       30.26F WCI  21
$$

ILZ064>066-069>071-074>076-080>082-084>086-088>090-092>094-281200-
SOUTH-CENTRAL ILLINOIS

CITY           SKY/WX    TMP DP  RH WIND       PRES   REMARKS
CARBONDALE     CLEAR     23  21  92 E3        30.28S FOG
CAIRO*         CLEAR     31  30  94 E3        30.28R
EFFINGHAM*     CLEAR     26  18  72 E7        30.29S WCI  18
MARION         CLEAR     25  23  93 CALM      30.29S FOG
MT. VERNON     CLEAR     25  19  80 CALM      30.29R
CENTRALIA*     CLEAR     24  22  91 CALM      30.28R FOG
SALEM*         FAIR      28  24  86 CALM      30.28R FOG
METROPOLIS*    CLEAR     25  25 100 CALM      30.28S FOG
$$

ILZ067-068-072-073-078-083-087-091-281200-
SOUTHEAST ILLINOIS

CITY           SKY/WX    TMP DP  RH WIND       PRES   REMARKS
LAWRENCEVILLE  CLEAR     23  19  85 E7        30.31S WCI  15
FLORA*         CLEAR     25  22  91 E3        30.29S
FAIRFIELD*     CLEAR     26  23  87 CALM      30.28R
HARRISBURG*    CLEAR     29  28  96 CALM      30.31R
ROBINSON*      CLEAR     22  20  92 SE6       30.31S WCI  14
CARMI*         CLEAR     27  26  96 E6        30.29S WCI  21
$$

ABBREVIATIONS USED IN REMARKS
   TC - TEMPERATURE IN CELSIUS
  WCI - WIND CHILL INDEX
   HX - HEAT INDEX
  VSB - VISIBILITY
$$



USA.gov is the U.S. government's official web portal to all federal, state and local government web resources and services.